owner,sensor,date,latitude,longitude,vertical_datum,wind_speed,wind_to_direction,wind_speed_of_gust,qcFlag 
FWRI,ioos:station:FWRI:OTB:1,2012-12-01T00:59:00Z,27.9320,-82.6475,0.0,10.675,97.99909,-9999.0,'1111122,1111122,1111122' 
FWRI,ioos:station:FWRI:OTB:1,2012-12-01T01:59:00Z,27.9320,-82.6475,0.0,11.44,163.9559,-9999.0,'1111122,1111122,1111122' 
FWRI,ioos:station:FWRI:OTB:1,2012-12-01T02:59:00Z,27.9320,-82.6475,0.0,15.84667,174.3214,-9999.0,'1111122,1111122,1111122' 
FWRI,ioos:station:FWRI:OTB:1,2012-12-01T03:59:00Z,27.9320,-82.6475,0.0,11.575,157.1326,-9999.0,'1111122,1111122,1111122' 
FWRI,ioos:station:FWRI:OTB:1,2012-12-01T04:59:00Z,27.9320,-82.6475,0.0,13.81667,159.9342,-9999.0,'1111122,1111122,1111122' 
FWRI,ioos:station:FWRI:OTB:1,2012-12-01T05:59:00Z,27.9320,-82.6475,0.0,14.26167,153.1158,-9999.0,'1111122,1111122,1111122' 
FWRI,ioos:station:FWRI:OTB:1,2012-12-01T06:59:00Z,27.9320,-82.6475,0.0,15.06834,155.0406,-9999.0,'1111122,1111122,1111122' 
FWRI,ioos:station:FWRI:OTB:1,2012-12-01T07:59:00Z,27.9320,-82.6475,0.0,14.71333,144.467,-9999.0,'1111122,1111122,1111122' 
FWRI,ioos:station:FWRI:OTB:1,2012-12-01T08:59:00Z,27.9320,-82.6475,0.0,14.935,143.0841,-9999.0,'1111122,1111122,1111122' 
FWRI,ioos:station:FWRI:OTB:1,2012-12-01T09:59:00Z,27.9320,-82.6475,0.0,14.93667,140.0999,-9999.0,'1111122,1111122,1111122' 
FWRI,ioos:station:FWRI:OTB:1,2012-12-01T10:59:00Z,27.9320,-82.6475,0.0,12.75,123.7909,-9999.0,'1111122,1111122,1111122' 
FWRI,ioos:station:FWRI:OTB:1,2012-12-01T11:59:00Z,27.9320,-82.6475,0.0,15.06667,114.8905,-9999.0,'1111122,1111122,1111122' 
FWRI,ioos:station:FWRI:OTB:1,2012-12-01T12:59:00Z,27.9320,-82.6475,0.0,15.41833,117.7924,-9999.0,'1111122,1111122,1111122' 
FWRI,ioos:station:FWRI:OTB:1,2012-12-01T13:59:00Z,27.9320,-82.6475,0.0,11.83,114.4256,-9999.0,'1111122,1111122,1111122' 
FWRI,ioos:station:FWRI:OTB:1,2012-12-01T14:59:00Z,27.9320,-82.6475,0.0,7.563333,110.2266,-9999.0,'1111122,1111122,1111122' 
FWRI,ioos:station:FWRI:OTB:1,2012-12-01T15:59:00Z,27.9320,-82.6475,0.0,3.396667,63.22681,-9999.0,'1111122,1111122,1111122' 
FWRI,ioos:station:FWRI:OTB:1,2012-12-01T16:59:00Z,27.9320,-82.6475,0.0,3.588333,189.0559,-9999.0,'1111122,1111122,1111122' 
FWRI,ioos:station:FWRI:OTB:1,2012-12-01T17:59:00Z,27.9320,-82.6475,0.0,7.595,172.1586,-9999.0,'1111122,1111122,1111122' 
FWRI,ioos:station:FWRI:OTB:1,2012-12-01T18:59:00Z,27.9320,-82.6475,0.0,6.038333,164.3068,-9999.0,'1111122,1111122,1111122' 
FWRI,ioos:station:FWRI:OTB:1,2012-12-01T19:59:00Z,27.9320,-82.6475,0.0,10.455,172.4184,-9999.0,'1111122,1111122,1111122' 
FWRI,ioos:station:FWRI:OTB:1,2012-12-01T20:59:00Z,27.9320,-82.6475,0.0,9.333334,162.2335,-9999.0,'1111122,1111122,1111122' 
FWRI,ioos:station:FWRI:OTB:1,2012-12-01T21:59:00Z,27.9320,-82.6475,0.0,16.64833,154.8048,-9999.0,'1111122,1111122,1111122' 
FWRI,ioos:station:FWRI:OTB:1,2012-12-01T22:59:00Z,27.9320,-82.6475,0.0,18.47,161.2665,-9999.0,'1111122,1111122,1111122' 
FWRI,ioos:station:FWRI:OTB:1,2012-12-01T23:59:00Z,27.9320,-82.6475,0.0,16.50667,159.8689,-9999.0,'1111122,1111122,1111122' 
FWRI,ioos:station:FWRI:OTB:1,2012-12-02T00:59:00Z,27.9320,-82.6475,0.0,13.27333,149.899,-9999.0,'1111122,1111122,1111122' 
FWRI,ioos:station:FWRI:OTB:1,2012-12-02T01:59:00Z,27.9320,-82.6475,0.0,12.305,151.9471,-9999.0,'1111122,1111122,1111122' 
FWRI,ioos:station:FWRI:OTB:1,2012-12-02T02:59:00Z,27.9320,-82.6475,0.0,12.29833,147.694,-9999.0,'1111122,1111122,1111122' 
FWRI,ioos:station:FWRI:OTB:1,2012-12-02T03:59:00Z,27.9320,-82.6475,0.0,10.76833,135.7572,-9999.0,'1111122,1111122,1111122' 
FWRI,ioos:station:FWRI:OTB:1,2012-12-02T04:59:00Z,27.9320,-82.6475,0.0,11.79167,139.3215,-9999.0,'1111122,1111122,1111122' 
FWRI,ioos:station:FWRI:OTB:1,2012-12-02T05:59:00Z,27.9320,-82.6475,0.0,12.62833,136.9821,-9999.0,'1111122,1111122,1111122' 
FWRI,ioos:station:FWRI:OTB:1,2012-12-02T06:59:00Z,27.9320,-82.6475,0.0,14.28167,141.8181,-9999.0,'1111122,1111122,1111122' 
FWRI,ioos:station:FWRI:OTB:1,2012-12-02T07:59:00Z,27.9320,-82.6475,0.0,11.84,147.571,-9999.0,'1111122,1111122,1111122' 
FWRI,ioos:station:FWRI:OTB:1,2012-12-02T08:59:00Z,27.9320,-82.6475,0.0,14.23167,145.667,-9999.0,'1111122,1111122,1111122' 
FWRI,ioos:station:FWRI:OTB:1,2012-12-02T09:59:00Z,27.9320,-82.6475,0.0,17.68,149.3002,-9999.0,'1111122,1111122,1111122' 
FWRI,ioos:station:FWRI:OTB:1,2012-12-02T10:59:00Z,27.9320,-82.6475,0.0,17.61834,147.9831,-9999.0,'1111122,1111122,1111122' 
FWRI,ioos:station:FWRI:OTB:1,2012-12-02T11:59:00Z,27.9320,-82.6475,0.0,18.60333,146.2672,-9999.0,'1111122,1111122,1111122' 
FWRI,ioos:station:FWRI:OTB:1,2012-12-02T12:59:00Z,27.9320,-82.6475,0.0,18.06833,150.3836,-9999.0,'1111122,1111122,1111122' 
FWRI,ioos:station:FWRI:OTB:1,2012-12-02T13:59:00Z,27.9320,-82.6475,0.0,14.1,151.7535,-9999.0,'1111122,1111122,1111122' 
FWRI,ioos:station:FWRI:OTB:1,2012-12-02T14:59:00Z,27.9320,-82.6475,0.0,10.57333,142.464,-9999.0,'1111122,1111122,1111122' 
FWRI,ioos:station:FWRI:OTB:1,2012-12-02T15:59:00Z,27.9320,-82.6475,0.0,5.651666,172.1481,-9999.0,'1111122,1111122,1111122' 
FWRI,ioos:station:FWRI:OTB:1,2012-12-02T16:59:00Z,27.9320,-82.6475,0.0,8.043333,191.1866,-9999.0,'1111122,1111122,1111122' 
FWRI,ioos:station:FWRI:OTB:1,2012-12-02T17:59:00Z,27.9320,-82.6475,0.0,6.698334,188.6918,-9999.0,'1111122,1111122,1111122' 
FWRI,ioos:station:FWRI:OTB:1,2012-12-02T18:59:00Z,27.9320,-82.6475,0.0,2.393334,305.0718,-9999.0,'1111122,1111122,1111122' 
FWRI,ioos:station:FWRI:OTB:1,2012-12-02T19:59:00Z,27.9320,-82.6475,0.0,5.111667,10.49817,-9999.0,'1111122,1111122,1111122' 
FWRI,ioos:station:FWRI:OTB:1,2012-12-02T20:59:00Z,27.9320,-82.6475,0.0,3.398333,37.36728,-9999.0,'1111122,1111122,1111122' 
FWRI,ioos:station:FWRI:OTB:1,2012-12-02T21:59:00Z,27.9320,-82.6475,0.0,7.28,133.2985,-9999.0,'1111122,1111122,1111122' 
FWRI,ioos:station:FWRI:OTB:1,2012-12-02T22:59:00Z,27.9320,-82.6475,0.0,9.495001,121.6309,-9999.0,'1111122,1111122,1111122' 
FWRI,ioos:station:FWRI:OTB:1,2012-12-02T23:59:00Z,27.9320,-82.6475,0.0,13.86,75.53638,-9999.0,'1111122,1111122,1111122' 
FWRI,ioos:station:FWRI:OTB:1,2012-12-03T00:59:00Z,27.9320,-82.6475,0.0,12.44833,92.53383,-9999.0,'1111122,1111122,1111122' 
FWRI,ioos:station:FWRI:OTB:1,2012-12-03T01:59:00Z,27.9320,-82.6475,0.0,8.336667,124.3538,-9999.0,'1111122,1111122,1111122' 
FWRI,ioos:station:FWRI:OTB:1,2012-12-03T02:59:00Z,27.9320,-82.6475,0.0,15.69,196.5493,-9999.0,'1111122,1111122,1111122' 
FWRI,ioos:station:FWRI:OTB:1,2012-12-03T03:59:00Z,27.9320,-82.6475,0.0,13.99,198.7005,-9999.0,'1111122,1111122,1111122' 
FWRI,ioos:station:FWRI:OTB:1,2012-12-03T04:59:00Z,27.9320,-82.6475,0.0,11.30833,197.9369,-9999.0,'1111122,1111122,1111122' 
FWRI,ioos:station:FWRI:OTB:1,2012-12-03T05:59:00Z,27.9320,-82.6475,0.0,10.08667,184.2507,-9999.0,'1111122,1111122,1111122' 
FWRI,ioos:station:FWRI:OTB:1,2012-12-03T06:59:00Z,27.9320,-82.6475,0.0,11.055,147.3872,-9999.0,'1111122,1111122,1111122' 
FWRI,ioos:station:FWRI:OTB:1,2012-12-03T07:59:00Z,27.9320,-82.6475,0.0,11.005,146.2351,-9999.0,'1111122,1111122,1111122' 
FWRI,ioos:station:FWRI:OTB:1,2012-12-03T08:59:00Z,27.9320,-82.6475,0.0,13.245,156.1753,-9999.0,'1111122,1111122,1111122' 
FWRI,ioos:station:FWRI:OTB:1,2012-12-03T09:59:00Z,27.9320,-82.6475,0.0,13.75167,156.4856,-9999.0,'1111122,1111122,1111122' 
FWRI,ioos:station:FWRI:OTB:1,2012-12-03T10:59:00Z,27.9320,-82.6475,0.0,12.8,160.8693,-9999.0,'1111122,1111122,1111122' 
FWRI,ioos:station:FWRI:OTB:1,2012-12-03T11:59:00Z,27.9320,-82.6475,0.0,12.31667,151.8306,-9999.0,'1111122,1111122,1111122' 
FWRI,ioos:station:FWRI:OTB:1,2012-12-03T12:59:00Z,27.9320,-82.6475,0.0,11.53667,147.0999,-9999.0,'1111122,1111122,1111122' 
FWRI,ioos:station:FWRI:OTB:1,2012-12-03T13:59:00Z,27.9320,-82.6475,0.0,9.439999,154.8994,-9999.0,'1111122,1111122,1111122' 
FWRI,ioos:station:FWRI:OTB:1,2012-12-03T14:59:00Z,27.9320,-82.6475,0.0,8.854999,163.7251,-9999.0,'1111122,1111122,1111122' 
FWRI,ioos:station:FWRI:OTB:1,2012-12-03T15:59:00Z,27.9320,-82.6475,0.0,8.011666,163.0158,-9999.0,'1111122,1111122,1111122' 
FWRI,ioos:station:FWRI:OTB:1,2012-12-03T16:59:00Z,27.9320,-82.6475,0.0,6.173333,173.7513,-9999.0,'1111122,1111122,1111122' 
FWRI,ioos:station:FWRI:OTB:1,2012-12-03T17:59:00Z,27.9320,-82.6475,0.0,2.695,153.4233,-9999.0,'1111122,1111122,1111122' 
FWRI,ioos:station:FWRI:OTB:1,2012-12-03T18:59:00Z,27.9320,-82.6475,0.0,2.133333,295.604,-9999.0,'1111122,1111122,1111122' 
FWRI,ioos:station:FWRI:OTB:1,2012-12-03T19:59:00Z,27.9320,-82.6475,0.0,2.276667,351.4218,-9999.0,'1111122,1111122,1111122' 
FWRI,ioos:station:FWRI:OTB:1,2012-12-03T20:59:00Z,27.9320,-82.6475,0.0,4.508333,79.31285,-9999.0,'1111122,1111122,1111122' 
FWRI,ioos:station:FWRI:OTB:1,2012-12-03T21:59:00Z,27.9320,-82.6475,0.0,6.351667,149.0622,-9999.0,'1111122,1111122,1111122' 
FWRI,ioos:station:FWRI:OTB:1,2012-12-03T22:59:00Z,27.9320,-82.6475,0.0,8.784999,171.9682,-9999.0,'1111122,1111122,1111122' 
FWRI,ioos:station:FWRI:OTB:1,2012-12-03T23:59:00Z,27.9320,-82.6475,0.0,11.04333,177.185,-9999.0,'1111122,1111122,1111122' 
FWRI,ioos:station:FWRI:OTB:1,2012-12-04T00:59:00Z,27.9320,-82.6475,0.0,14.52167,178.0362,-9999.0,'1111122,1111122,1111122' 
FWRI,ioos:station:FWRI:OTB:1,2012-12-04T01:59:00Z,27.9320,-82.6475,0.0,20.28667,189.3831,-9999.0,'1111122,1111122,1111122' 
FWRI,ioos:station:FWRI:OTB:1,2012-12-04T02:59:00Z,27.9320,-82.6475,0.0,22.12833,195.6332,-9999.0,'1111122,1111122,1111122' 
FWRI,ioos:station:FWRI:OTB:1,2012-12-04T03:59:00Z,27.9320,-82.6475,0.0,20.02167,190.3534,-9999.0,'1111122,1111122,1111122' 
FWRI,ioos:station:FWRI:OTB:1,2012-12-04T04:59:00Z,27.9320,-82.6475,0.0,15.11667,183.7526,-9999.0,'1111122,1111122,1111122' 
FWRI,ioos:station:FWRI:OTB:1,2012-12-04T05:59:00Z,27.9320,-82.6475,0.0,13.53167,164.9524,-9999.0,'1111122,1111122,1111122' 
FWRI,ioos:station:FWRI:OTB:1,2012-12-04T06:59:00Z,27.9320,-82.6475,0.0,13.15833,173.9014,-9999.0,'1111122,1111122,1111122' 
FWRI,ioos:station:FWRI:OTB:1,2012-12-04T07:59:00Z,27.9320,-82.6475,0.0,13.58333,191.0175,-9999.0,'1111122,1111122,1111122' 
FWRI,ioos:station:FWRI:OTB:1,2012-12-04T08:59:00Z,27.9320,-82.6475,0.0,13.16167,177.3857,-9999.0,'1111122,1111122,1111122' 
FWRI,ioos:station:FWRI:OTB:1,2012-12-04T09:59:00Z,27.9320,-82.6475,0.0,8.656666,130.036,-9999.0,'1111122,1111122,1111122' 
FWRI,ioos:station:FWRI:OTB:1,2012-12-04T10:59:00Z,27.9320,-82.6475,0.0,7.965001,138.5561,-9999.0,'1111122,1111122,1111122' 
FWRI,ioos:station:FWRI:OTB:1,2012-12-04T11:59:00Z,27.9320,-82.6475,0.0,9.306666,154.1716,-9999.0,'1111122,1111122,1111122' 
FWRI,ioos:station:FWRI:OTB:1,2012-12-04T12:59:00Z,27.9320,-82.6475,0.0,12.035,168.211,-9999.0,'1111122,1111122,1111122' 
FWRI,ioos:station:FWRI:OTB:1,2012-12-04T13:59:00Z,27.9320,-82.6475,0.0,11.645,168.1337,-9999.0,'1111122,1111122,1111122' 
FWRI,ioos:station:FWRI:OTB:1,2012-12-04T14:59:00Z,27.9320,-82.6475,0.0,8.110001,155.9736,-9999.0,'1111122,1111122,1111122' 
FWRI,ioos:station:FWRI:OTB:1,2012-12-04T15:59:00Z,27.9320,-82.6475,0.0,11.88333,191.3558,-9999.0,'1111122,1111122,1111122' 
FWRI,ioos:station:FWRI:OTB:1,2012-12-04T16:59:00Z,27.9320,-82.6475,0.0,9.238333,207.2934,-9999.0,'1111122,1111122,1111122' 
FWRI,ioos:station:FWRI:OTB:1,2012-12-04T17:59:00Z,27.9320,-82.6475,0.0,8.885,214.4345,-9999.0,'1111122,1111122,1111122' 
FWRI,ioos:station:FWRI:OTB:1,2012-12-04T18:59:00Z,27.9320,-82.6475,0.0,1.943333,70.64567,-9999.0,'1111122,1111122,1111122' 
FWRI,ioos:station:FWRI:OTB:1,2012-12-04T19:59:00Z,27.9320,-82.6475,0.0,5.128334,49.67911,-9999.0,'1111122,1111122,1111122' 
FWRI,ioos:station:FWRI:OTB:1,2012-12-04T20:59:00Z,27.9320,-82.6475,0.0,4.893333,13.665,-9999.0,'1111122,1111122,1111122' 
FWRI,ioos:station:FWRI:OTB:1,2012-12-04T21:59:00Z,27.9320,-82.6475,0.0,2.996667,220.8382,-9999.0,'1111122,1111122,1111122' 
FWRI,ioos:station:FWRI:OTB:1,2012-12-04T22:59:00Z,27.9320,-82.6475,0.0,8.490001,182.5818,-9999.0,'1111122,1111122,1111122' 
FWRI,ioos:station:FWRI:OTB:1,2012-12-04T23:59:00Z,27.9320,-82.6475,0.0,11.14667,189.048,-9999.0,'1111122,1111122,1111122' 
FWRI,ioos:station:FWRI:OTB:1,2012-12-05T00:59:00Z,27.9320,-82.6475,0.0,16.655,201.2342,-9999.0,'1111122,1111122,1111122' 
FWRI,ioos:station:FWRI:OTB:1,2012-12-05T01:59:00Z,27.9320,-82.6475,0.0,15.11333,196.5011,-9999.0,'1111122,1111122,1111122' 
FWRI,ioos:station:FWRI:OTB:1,2012-12-05T02:59:00Z,27.9320,-82.6475,0.0,16.08834,195.6842,-9999.0,'1111122,1111122,1111122' 
FWRI,ioos:station:FWRI:OTB:1,2012-12-05T03:59:00Z,27.9320,-82.6475,0.0,15.29167,190.0206,-9999.0,'1111122,1111122,1111122' 
FWRI,ioos:station:FWRI:OTB:1,2012-12-05T04:59:00Z,27.9320,-82.6475,0.0,14.49167,183.4062,-9999.0,'1111122,1111122,1111122' 
FWRI,ioos:station:FWRI:OTB:1,2012-12-05T05:59:00Z,27.9320,-82.6475,0.0,9.325001,130.168,-9999.0,'1111122,1111122,1111122' 
FWRI,ioos:station:FWRI:OTB:1,2012-12-05T06:59:00Z,27.9320,-82.6475,0.0,9.238333,137.4086,-9999.0,'1111122,1111122,1111122' 
FWRI,ioos:station:FWRI:OTB:1,2012-12-05T07:59:00Z,27.9320,-82.6475,0.0,8.13,132.5884,-9999.0,'1111122,1111122,1111122' 
FWRI,ioos:station:FWRI:OTB:1,2012-12-05T08:59:00Z,27.9320,-82.6475,0.0,8.445,143.3047,-9999.0,'1111122,1111122,1111122' 
FWRI,ioos:station:FWRI:OTB:1,2012-12-05T09:59:00Z,27.9320,-82.6475,0.0,9.395,149.8208,-9999.0,'1111122,1111122,1111122' 
FWRI,ioos:station:FWRI:OTB:1,2012-12-05T10:59:00Z,27.9320,-82.6475,0.0,7.373333,146.9976,-9999.0,'1111122,1111122,1111122' 
FWRI,ioos:station:FWRI:OTB:1,2012-12-05T11:59:00Z,27.9320,-82.6475,0.0,9.713334,170.0112,-9999.0,'1111122,1111122,1111122' 
FWRI,ioos:station:FWRI:OTB:1,2012-12-05T12:59:00Z,27.9320,-82.6475,0.0,7.634999,149.2603,-9999.0,'1111122,1111122,1111122' 
FWRI,ioos:station:FWRI:OTB:1,2012-12-05T13:59:00Z,27.9320,-82.6475,0.0,10.39167,159.3667,-9999.0,'1111122,1111122,1111122' 
FWRI,ioos:station:FWRI:OTB:1,2012-12-05T14:59:00Z,27.9320,-82.6475,0.0,13.64667,162.3923,-9999.0,'1111122,1111122,1111122' 
FWRI,ioos:station:FWRI:OTB:1,2012-12-05T15:59:00Z,27.9320,-82.6475,0.0,7.623332,185.1968,-9999.0,'1111122,1111122,1111122' 
FWRI,ioos:station:FWRI:OTB:1,2012-12-05T16:59:00Z,27.9320,-82.6475,0.0,3.016666,231.9794,-9999.0,'1111122,1111122,1111122' 
FWRI,ioos:station:FWRI:OTB:1,2012-12-05T17:59:00Z,27.9320,-82.6475,0.0,4.036667,282.7042,-9999.0,'1111122,1111122,1111122' 
FWRI,ioos:station:FWRI:OTB:1,2012-12-05T18:59:00Z,27.9320,-82.6475,0.0,5.755,9.409682,-9999.0,'1111122,1111122,1111122' 
FWRI,ioos:station:FWRI:OTB:1,2012-12-05T19:59:00Z,27.9320,-82.6475,0.0,6.511668,359.2002,-9999.0,'1111122,1111122,1111122' 
FWRI,ioos:station:FWRI:OTB:1,2012-12-05T20:59:00Z,27.9320,-82.6475,0.0,11.31166,15.94261,-9999.0,'1111122,1111122,1111122' 
FWRI,ioos:station:FWRI:OTB:1,2012-12-05T21:59:00Z,27.9320,-82.6475,0.0,14.45833,26.4529,-9999.0,'1111122,1111122,1111122' 
FWRI,ioos:station:FWRI:OTB:1,2012-12-05T22:59:00Z,27.9320,-82.6475,0.0,13.96834,49.43288,-9999.0,'1111122,1111122,1111122' 
FWRI,ioos:station:FWRI:OTB:1,2012-12-05T23:59:00Z,27.9320,-82.6475,0.0,12.815,47.86637,-9999.0,'1111122,1111122,1111122' 
FWRI,ioos:station:FWRI:OTB:1,2012-12-06T00:59:00Z,27.9320,-82.6475,0.0,14.45,67.93136,-9999.0,'1111122,1111122,1111122' 
FWRI,ioos:station:FWRI:OTB:1,2012-12-06T01:59:00Z,27.9320,-82.6475,0.0,14.92667,98.47235,-9999.0,'1111122,1111122,1111122' 
FWRI,ioos:station:FWRI:OTB:1,2012-12-06T02:59:00Z,27.9320,-82.6475,0.0,22.25666,139.8595,-9999.0,'1111122,1111122,1111122' 
FWRI,ioos:station:FWRI:OTB:1,2012-12-06T03:59:00Z,27.9320,-82.6475,0.0,19.75666,153.4139,-9999.0,'1111122,1111122,1111122' 
FWRI,ioos:station:FWRI:OTB:1,2012-12-06T04:59:00Z,27.9320,-82.6475,0.0,18.65,164.5838,-9999.0,'1111122,1111122,1111122' 
FWRI,ioos:station:FWRI:OTB:1,2012-12-06T05:59:00Z,27.9320,-82.6475,0.0,17.22833,166.0168,-9999.0,'1111122,1111122,1111122' 
FWRI,ioos:station:FWRI:OTB:1,2012-12-06T06:59:00Z,27.9320,-82.6475,0.0,15.34334,166.0247,-9999.0,'1111122,1111122,1111122' 
FWRI,ioos:station:FWRI:OTB:1,2012-12-06T07:59:00Z,27.9320,-82.6475,0.0,18.05833,170.7044,-9999.0,'1111122,1111122,1111122' 
FWRI,ioos:station:FWRI:OTB:1,2012-12-06T08:59:00Z,27.9320,-82.6475,0.0,21.89334,170.7352,-9999.0,'1111122,1111122,1111122' 
FWRI,ioos:station:FWRI:OTB:1,2012-12-06T09:59:00Z,27.9320,-82.6475,0.0,18.43833,170.0997,-9999.0,'1111122,1111122,1111122' 
FWRI,ioos:station:FWRI:OTB:1,2012-12-06T10:59:00Z,27.9320,-82.6475,0.0,16.795,177.756,-9999.0,'1111122,1111122,1111122' 
FWRI,ioos:station:FWRI:OTB:1,2012-12-06T11:59:00Z,27.9320,-82.6475,0.0,13.45667,171.6832,-9999.0,'1111122,1111122,1111122' 
FWRI,ioos:station:FWRI:OTB:1,2012-12-06T12:59:00Z,27.9320,-82.6475,0.0,12.34333,166.3208,-9999.0,'1111122,1111122,1111122' 
FWRI,ioos:station:FWRI:OTB:1,2012-12-06T13:59:00Z,27.9320,-82.6475,0.0,9.363332,155.0549,-9999.0,'1111122,1111122,1111122' 
FWRI,ioos:station:FWRI:OTB:1,2012-12-06T14:59:00Z,27.9320,-82.6475,0.0,10.39166,145.171,-9999.0,'1111122,1111122,1111122' 
FWRI,ioos:station:FWRI:OTB:1,2012-12-06T15:59:00Z,27.9320,-82.6475,0.0,7.828333,139.2875,-9999.0,'1111122,1111122,1111122' 
FWRI,ioos:station:FWRI:OTB:1,2012-12-06T16:59:00Z,27.9320,-82.6475,0.0,5.721667,119.8347,-9999.0,'1111122,1111122,1111122' 
FWRI,ioos:station:FWRI:OTB:1,2012-12-06T17:59:00Z,27.9320,-82.6475,0.0,5.248333,122.9345,-9999.0,'1111122,1111122,1111122' 
FWRI,ioos:station:FWRI:OTB:1,2012-12-06T18:59:00Z,27.9320,-82.6475,0.0,5.17,32.71581,-9999.0,'1111122,1111122,1111122' 
FWRI,ioos:station:FWRI:OTB:1,2012-12-06T19:59:00Z,27.9320,-82.6475,0.0,8.374999,37.14435,-9999.0,'1111122,1111122,1111122' 
FWRI,ioos:station:FWRI:OTB:1,2012-12-06T20:59:00Z,27.9320,-82.6475,0.0,5.323333,16.41389,-9999.0,'1111122,1111122,1111122' 
FWRI,ioos:station:FWRI:OTB:1,2012-12-06T21:59:00Z,27.9320,-82.6475,0.0,5.456666,353.8305,-9999.0,'1111122,1111122,1111122' 
FWRI,ioos:station:FWRI:OTB:1,2012-12-06T22:59:00Z,27.9320,-82.6475,0.0,5.55,35.93088,-9999.0,'1111122,1111122,1111122' 
FWRI,ioos:station:FWRI:OTB:1,2012-12-06T23:59:00Z,27.9320,-82.6475,0.0,5.445,109.4524,-9999.0,'1111122,1111122,1111122' 
FWRI,ioos:station:FWRI:OTB:1,2012-12-07T00:59:00Z,27.9320,-82.6475,0.0,5.705,133.8116,-9999.0,'1111122,1111122,1111122' 
FWRI,ioos:station:FWRI:OTB:1,2012-12-07T01:59:00Z,27.9320,-82.6475,0.0,12.41667,152.9011,-9999.0,'1111122,1111122,1111122' 
FWRI,ioos:station:FWRI:OTB:1,2012-12-07T02:59:00Z,27.9320,-82.6475,0.0,16.87,166.0779,-9999.0,'1111122,1111122,1111122' 
FWRI,ioos:station:FWRI:OTB:1,2012-12-07T03:59:00Z,27.9320,-82.6475,0.0,12.33333,169.9044,-9999.0,'1111122,1111122,1111122' 
FWRI,ioos:station:FWRI:OTB:1,2012-12-07T04:59:00Z,27.9320,-82.6475,0.0,11.925,148.8316,-9999.0,'1111122,1111122,1111122' 
FWRI,ioos:station:FWRI:OTB:1,2012-12-07T05:59:00Z,27.9320,-82.6475,0.0,11.21167,150.436,-9999.0,'1111122,1111122,1111122' 
FWRI,ioos:station:FWRI:OTB:1,2012-12-07T06:59:00Z,27.9320,-82.6475,0.0,14.265,152.4326,-9999.0,'1111122,1111122,1111122' 
FWRI,ioos:station:FWRI:OTB:1,2012-12-07T07:59:00Z,27.9320,-82.6475,0.0,13.63,148.7679,-9999.0,'1111122,1111122,1111122' 
FWRI,ioos:station:FWRI:OTB:1,2012-12-07T08:59:00Z,27.9320,-82.6475,0.0,13.54,157.7053,-9999.0,'1111122,1111122,1111122' 
FWRI,ioos:station:FWRI:OTB:1,2012-12-07T09:59:00Z,27.9320,-82.6475,0.0,14.93,152.1958,-9999.0,'1111122,1111122,1111122' 
FWRI,ioos:station:FWRI:OTB:1,2012-12-07T10:59:00Z,27.9320,-82.6475,0.0,12.535,142.7924,-9999.0,'1111122,1111122,1111122' 
FWRI,ioos:station:FWRI:OTB:1,2012-12-07T11:59:00Z,27.9320,-82.6475,0.0,13.15,139.4651,-9999.0,'1111122,1111122,1111122' 
FWRI,ioos:station:FWRI:OTB:1,2012-12-07T12:59:00Z,27.9320,-82.6475,0.0,12.26667,139.8662,-9999.0,'1111122,1111122,1111122' 
FWRI,ioos:station:FWRI:OTB:1,2012-12-07T13:59:00Z,27.9320,-82.6475,0.0,10.69333,131.5937,-9999.0,'1111122,1111122,1111122' 
FWRI,ioos:station:FWRI:OTB:1,2012-12-07T14:59:00Z,27.9320,-82.6475,0.0,15.45,168.3644,-9999.0,'1111122,1111122,1111122' 
FWRI,ioos:station:FWRI:OTB:1,2012-12-07T15:59:00Z,27.9320,-82.6475,0.0,14.27,156.8784,-9999.0,'1111122,1111122,1111122' 
FWRI,ioos:station:FWRI:OTB:1,2012-12-07T16:59:00Z,27.9320,-82.6475,0.0,13.02833,169.1804,-9999.0,'1111122,1111122,1111122' 
FWRI,ioos:station:FWRI:OTB:1,2012-12-07T17:59:00Z,27.9320,-82.6475,0.0,7.195001,150.9708,-9999.0,'1111122,1111122,1111122' 
FWRI,ioos:station:FWRI:OTB:1,2012-12-07T18:59:00Z,27.9320,-82.6475,0.0,3.868334,29.27716,-9999.0,'1111122,1111122,1111122' 
FWRI,ioos:station:FWRI:OTB:1,2012-12-07T19:59:00Z,27.9320,-82.6475,0.0,4.866666,345.1113,-9999.0,'1111122,1111122,1111122' 
FWRI,ioos:station:FWRI:OTB:1,2012-12-07T20:59:00Z,27.9320,-82.6475,0.0,5.088334,18.45399,-9999.0,'1111122,1111122,1111122' 
FWRI,ioos:station:FWRI:OTB:1,2012-12-07T21:59:00Z,27.9320,-82.6475,0.0,5.940001,41.08608,-9999.0,'1111122,1111122,1111122' 
FWRI,ioos:station:FWRI:OTB:1,2012-12-07T22:59:00Z,27.9320,-82.6475,0.0,7.11,58.61332,-9999.0,'1111122,1111122,1111122' 
FWRI,ioos:station:FWRI:OTB:1,2012-12-07T23:59:00Z,27.9320,-82.6475,0.0,14.51667,73.88489,-9999.0,'1111122,1111122,1111122' 
FWRI,ioos:station:FWRI:OTB:1,2012-12-08T00:59:00Z,27.9320,-82.6475,0.0,14.92667,87.83138,-9999.0,'1111122,1111122,1111122' 
FWRI,ioos:station:FWRI:OTB:1,2012-12-08T01:59:00Z,27.9320,-82.6475,0.0,13.04333,104.8502,-9999.0,'1111122,1111122,1111122' 
FWRI,ioos:station:FWRI:OTB:1,2012-12-08T02:59:00Z,27.9320,-82.6475,0.0,9.651668,124.1842,-9999.0,'1111122,1111122,1111122' 
FWRI,ioos:station:FWRI:OTB:1,2012-12-08T03:59:00Z,27.9320,-82.6475,0.0,8.423334,144.1191,-9999.0,'1111122,1111122,1111122' 
FWRI,ioos:station:FWRI:OTB:1,2012-12-08T04:59:00Z,27.9320,-82.6475,0.0,12.55667,165.6882,-9999.0,'1111122,1111122,1111122' 
FWRI,ioos:station:FWRI:OTB:1,2012-12-08T05:59:00Z,27.9320,-82.6475,0.0,11.2,169.0357,-9999.0,'1111122,1111122,1111122' 
FWRI,ioos:station:FWRI:OTB:1,2012-12-08T06:59:00Z,27.9320,-82.6475,0.0,14.415,189.6999,-9999.0,'1111122,1111122,1111122' 
FWRI,ioos:station:FWRI:OTB:1,2012-12-08T07:59:00Z,27.9320,-82.6475,0.0,11.445,170.1969,-9999.0,'1111122,1111122,1111122' 
FWRI,ioos:station:FWRI:OTB:1,2012-12-08T08:59:00Z,27.9320,-82.6475,0.0,14.39833,186.9761,-9999.0,'1111122,1111122,1111122' 
FWRI,ioos:station:FWRI:OTB:1,2012-12-08T09:59:00Z,27.9320,-82.6475,0.0,14.66,196.3965,-9999.0,'1111122,1111122,1111122' 
FWRI,ioos:station:FWRI:OTB:1,2012-12-08T10:59:00Z,27.9320,-82.6475,0.0,12.86667,193.6988,-9999.0,'1111122,1111122,1111122' 
FWRI,ioos:station:FWRI:OTB:1,2012-12-08T11:59:00Z,27.9320,-82.6475,0.0,14.18666,198.2789,-9999.0,'1111122,1111122,1111122' 
FWRI,ioos:station:FWRI:OTB:1,2012-12-08T12:59:00Z,27.9320,-82.6475,0.0,14.98667,200.4833,-9999.0,'1111122,1111122,1111122' 
FWRI,ioos:station:FWRI:OTB:1,2012-12-08T13:59:00Z,27.9320,-82.6475,0.0,14.11167,203.1875,-9999.0,'1111122,1111122,1111122' 
FWRI,ioos:station:FWRI:OTB:1,2012-12-08T14:59:00Z,27.9320,-82.6475,0.0,12.47,219.1567,-9999.0,'1111122,1111122,1111122' 
FWRI,ioos:station:FWRI:OTB:1,2012-12-08T15:59:00Z,27.9320,-82.6475,0.0,11.845,224.5679,-9999.0,'1111122,1111122,1111122' 
FWRI,ioos:station:FWRI:OTB:1,2012-12-08T16:59:00Z,27.9320,-82.6475,0.0,9.898333,216.2846,-9999.0,'1111122,1111122,1111122' 
FWRI,ioos:station:FWRI:OTB:1,2012-12-08T17:59:00Z,27.9320,-82.6475,0.0,7.97,190.0496,-9999.0,'1111122,1111122,1111122' 
FWRI,ioos:station:FWRI:OTB:1,2012-12-08T18:59:00Z,27.9320,-82.6475,0.0,10.93333,207.8568,-9999.0,'1111122,1111122,1111122' 
FWRI,ioos:station:FWRI:OTB:1,2012-12-08T19:59:00Z,27.9320,-82.6475,0.0,6.331666,110.5985,-9999.0,'1111122,1111122,1111122' 
FWRI,ioos:station:FWRI:OTB:1,2012-12-08T20:59:00Z,27.9320,-82.6475,0.0,10.12833,2.680391,-9999.0,'1111122,1111122,1111122' 
FWRI,ioos:station:FWRI:OTB:1,2012-12-08T21:59:00Z,27.9320,-82.6475,0.0,9.170001,0.743266,-9999.0,'1111122,1111122,1111122' 
FWRI,ioos:station:FWRI:OTB:1,2012-12-08T22:59:00Z,27.9320,-82.6475,0.0,11.63,19.36652,-9999.0,'1111122,1111122,1111122' 
FWRI,ioos:station:FWRI:OTB:1,2012-12-08T23:59:00Z,27.9320,-82.6475,0.0,13.30167,40.63046,-9999.0,'1111122,1111122,1111122' 
FWRI,ioos:station:FWRI:OTB:1,2012-12-09T00:59:00Z,27.9320,-82.6475,0.0,11.21667,83.73522,-9999.0,'1111122,1111122,1111122' 
FWRI,ioos:station:FWRI:OTB:1,2012-12-09T01:59:00Z,27.9320,-82.6475,0.0,10.18,90.92616,-9999.0,'1111122,1111122,1111122' 